User: anonymous   Login
Location: Unspecified
(0.0000°N, 0.0000°E)
Time: 07:14:23
(UTC+00:00)
Language:

PCSat - Orbit

View from above orbital plane
View from above orbital plane
View from above satellite
View from above satellite

Ground track
Ground track

The orbit data is extracted from the following two-line orbital elements,

1 26931U 01043C   20047.52085691 -.00000062 +00000-0 +79038-5 0  9999
2 26931 067.0508 097.0550 0006535 263.3537 096.6820 14.30567162959631
Epoch (UTC): 16 February 2020 12:30:02
Eccentricity: 0.0006535
inclination: 67.0508°
perigee height: 785 km
apogee height: 794 km
right ascension of ascending node: 97.0550°
argument of perigee: 263.3537°
revolutions per day: 14.30567162
mean anomaly at epoch: 96.6820°
orbit number at epoch: 95963

The dashed part of the orbit path shows where the satellite is in the earth's shadow,  

DLR